Location: Medlow Airstrip Trail, Medlow Bath NSW 2780, Australia
(33.6682°S, 150.3233°E)
Time: 05:26:41
(UTC+11:00)

deb Explorer IX - All Passes

Search period start: 17 October 2019 00:00
Search period end: 27 October 2019 00:00
Orbit: 544 x 1107 km, 38.8° (Epoch: 15 October)

Date Brightness Start Highest point End Pass type
(mag) Time Alt. Az. Time Alt. Az. Time Alt. Az.
17 Oct - 00:41:45 10° NNE 00:43:24 11° NE 00:45:00 10° NE night (unlit)
17 Oct - 02:24:34 10° NW 02:30:08 44° NNE 02:34:54 10° E visible
17 Oct - 04:11:51 10° W 04:17:07 64° SSW 04:21:40 10° ESE visible
17 Oct - 05:59:56 10° WSW 06:04:26 42° S 06:08:30 10° ESE daylight
17 Oct - 07:47:17 10° WSW 07:51:37 76° SSE 07:55:44 10° ENE daylight
17 Oct - 09:34:46 10° W 09:38:09 24° NW 09:41:33 10° NNE daylight
18 Oct - 00:19:09 10° NNE 00:21:29 12° NE 00:23:43 10° ENE night (unlit)
18 Oct - 02:02:29 10° NW 02:08:15 47° NNE 02:13:11 10° ESE visible
18 Oct - 03:49:50 10° W 03:55:18 64° SSW 03:59:58 10° ESE visible
18 Oct - 05:38:00 10° WSW 05:42:39 43° S 05:46:48 10° ESE visible
18 Oct - 07:25:25 10° WSW 07:29:51 78° SSE 07:33:59 10° ENE daylight
18 Oct - 09:13:01 10° W 09:16:22 24° NW 09:19:41 10° NNE daylight
18 Oct - 23:56:42 10° NNE 23:59:33 13° NE 00:02:16 10° ENE night (unlit)
19 Oct - 01:40:23 10° NW 01:46:21 49° NNE 01:51:28 10° ESE visible
19 Oct - 03:27:49 10° W 03:33:27 64° SSW 03:38:15 10° ESE visible
19 Oct - 05:16:02 10° WSW 05:20:52 44° S 05:25:06 10° ESE visible
19 Oct - 07:03:32 10° WSW 07:08:05 80° SSE 07:12:14 10° ENE daylight
19 Oct - 08:51:14 10° W 08:54:34 23° NW 08:57:50 10° NNE daylight
19 Oct - 23:34:18 10° N 23:37:37 14° NE 23:40:44 10° ENE night (unlit)
20 Oct - 01:18:16 10° NW 01:24:27 51° NNE 01:29:45 10° ESE night (unlit)
20 Oct - 03:05:47 10° W 03:11:36 64° SSW 03:16:32 10° ESE visible
20 Oct - 04:54:04 10° WSW 04:59:03 45° S 05:03:24 10° ESE visible
20 Oct - 06:41:38 10° WSW 06:46:19 82° SSE 06:50:31 10° ENE daylight
20 Oct - 08:29:26 10° W 08:32:47 22° NW 08:36:00 10° NNE daylight
20 Oct - 23:11:59 10° N 23:15:40 15° NE 23:19:08 10° ENE night (unlit)
21 Oct - 00:56:09 10° NW 01:02:31 53° NNE 01:08:00 10° ESE night (unlit)
21 Oct - 02:43:44 10° W 02:49:44 64° SSW 02:54:49 10° ESE visible
21 Oct - 04:32:04 10° WSW 04:37:15 47° S 04:41:43 10° ESE visible
21 Oct - 06:19:42 10° WSW 06:24:32 84° SSE 06:28:47 10° ENE daylight
21 Oct - 08:07:36 10° W 08:10:59 22° NW 08:14:11 10° NNE daylight
21 Oct - 22:49:40 10° N 22:53:42 16° NE 22:57:29 10° ENE night (unlit)
22 Oct - 00:34:02 10° NW 00:40:35 55° NNE 00:46:15 10° ESE night (unlit)
22 Oct - 02:21:41 10° W 02:27:51 64° SSW 02:33:05 10° ESE visible
22 Oct - 04:10:03 10° WSW 04:15:25 48° S 04:20:01 10° ESE visible
22 Oct - 05:57:45 10° WSW 06:02:44 86° SSE 06:07:05 10° ENE daylight
22 Oct - 07:45:45 10° W 07:49:11 22° NW 07:52:24 10° NNE daylight
22 Oct - 22:27:24 10° N 22:31:43 17° NE 22:35:47 10° ENE night (unlit)
23 Oct - 00:11:55 10° NW 00:18:37 57° NNE 00:24:28 10° ESE night (unlit)
23 Oct - 01:59:36 10° W 02:05:58 64° SSW 02:11:21 10° ESE visible
23 Oct - 03:48:02 10° WSW 03:53:36 49° S 03:58:19 10° ESE visible
23 Oct - 05:35:47 10° WSW 05:40:56 88° SSE 05:45:22 10° ENE visible
23 Oct - 07:23:53 10° W 07:27:22 21° NW 07:30:36 10° NNE daylight
23 Oct - 22:05:10 10° N 22:09:43 18° NE 22:14:03 10° E night (unlit)
23 Oct - 23:49:48 10° NW 23:56:39 58° NNE 00:02:41 10° ESE night (unlit)
24 Oct - 01:37:32 10° W 01:44:03 64° SSW 01:49:37 10° ESE visible
24 Oct - 03:25:59 10° WSW 03:31:44 50° S 03:36:37 10° E visible
24 Oct - 05:13:48 10° WSW 05:19:08 89° SE 05:23:39 10° ENE visible
24 Oct - 07:01:59 10° W 07:05:33 21° NW 07:08:50 10° NNE daylight
24 Oct - 21:42:56 10° N 21:47:44 19° NE 21:52:18 10° E night (unlit)
24 Oct - 23:27:41 10° NW 23:34:40 60° NNE 23:40:53 10° ESE night (unlit)
25 Oct - 01:15:27 10° W 01:22:07 64° SSW 01:27:51 10° ESE visible
25 Oct - 03:03:55 10° WSW 03:09:52 51° S 03:14:55 10° E visible
25 Oct - 04:51:47 10° WSW 04:57:18 89° NNW 05:01:57 10° ENE visible
25 Oct - 06:40:04 10° W 06:43:43 21° NW 06:47:04 10° NNE daylight
25 Oct - 21:20:45 10° N 21:25:43 20° NE 21:30:29 10° E visible
25 Oct - 23:05:35 10° NW 23:12:40 62° NNE 23:19:03 10° ESE night (unlit)
26 Oct - 00:53:22 10° W 01:00:11 64° SSW 01:06:05 10° ESE night (unlit)
26 Oct - 02:41:51 10° WSW 02:47:59 52° S 02:53:12 10° E visible
26 Oct - 04:29:46 10° WSW 04:35:27 87° NNW 04:40:14 10° ENE visible
26 Oct - 06:18:07 10° W 06:21:53 21° NW 06:25:19 10° N daylight
26 Oct - 20:58:34 10° N 21:03:42 20° NE 21:08:39 10° E visible
26 Oct - 22:43:29 10° NW 22:50:40 63° NNE 22:57:12 10° ESE visible
